Overview Statistics Trail Chart Weather Telemetry Raw packets
 

This is the latest recevied weather packets stored in our database for station/object WA9NNN-10. If no packets are shown the sender has not sent any weather packets the latest 10 day(s).

<< 26 27 28 29 30 31 32 >>
Time Temp. Humidity Pressure Rain* Wind** Luminosity Snow
1788472711 28.89° C 68% 1013.3 hPa 0 mm - - -
1788472410 28.89° C 67% 1013.2 hPa 0 mm - - -
1788472111 28.89° C 66% 1013.2 hPa 0 mm - - -
1788471814 28.89° C 66% 1013.2 hPa 0 mm - - -
1788471511 28.89° C 65% 1013.3 hPa 0 mm - - -
1788471210 28.89° C 65% 1013.1 hPa 0 mm - - -
1788470911 29.44° C 65% 1013.1 hPa 0 mm - - -
1788470610 29.44° C 64% 1013.1 hPa 0 mm - - -
1788470311 29.44° C 64% 1013.2 hPa 0 mm - - -
1788470011 29.44° C 64% 1013.3 hPa 0 mm - - -
1788469711 29.44° C 63% 1013.2 hPa 0 mm - - -
1788469410 29.44° C 63% 1013.3 hPa 0 mm - - -
1788469112 29.44° C 64% 1013.2 hPa 0 mm - - -
1788468811 29.44° C 63% 1013.4 hPa 0 mm - - -
1788468511 30° C 62% 1013.7 hPa 0 mm - - -
1788468210 30° C 61% 1013.5 hPa 0 mm - - -
1788467911 30.56° C 59% 1013.6 hPa 0 mm - - -
1788467611 31.11° C 57% 1013.7 hPa 0 mm - - -
1788467311 31.67° C 55% 1013.5 hPa 0 mm - - -
1788467010 32.78° C 53% 1013.6 hPa 0 mm - - -
1788466711 33.89° C 52% 1013.5 hPa 0 mm - - -
1788466411 34.44° C 51% 1013.2 hPa 0 mm - - -
1788466111 34.44° C 50% 1013.2 hPa 0 mm - - -
1788465811 35° C 49% 1013.3 hPa 0 mm - - -
1788465512 35° C 49% 1013.3 hPa 0 mm - - -

* Rain latest hour (hover to see other rain measurements)
** Current wind speed in m/s (hover to see current wind gust speed)